Date,TemperatureHighF,TemperatureAvgF,TemperatureLowF,DewpointHighF,DewpointAvgF,DewpointLowF,HumidityHigh,HumidityAvg,HumidityLow,PressureMaxIn,PressureMinIn,WindSpeedMaxMPH,WindSpeedAvgMPH,GustSpeedMaxMPH,PrecipitationSumIn
2013-1-1,33,26,15,17,-2,-20,54,31,19,29.87,29.70,26,6,26,0.00
2013-1-2,26,17,6,0,-9,-21,42,32,19,30.03,29.85,19,3,19,0.00
2013-1-3,20,11,-1,-6,-23,-33,35,19,19,30.07,29.96,16,3,16,0.00
2013-1-4,35,32,18,14,12,0,55,43,39,29.92,29.79,18,3,19,0.00
2013-1-5,38,31,23,15,3,-8,50,31,19,30.21,29.83,20,3,21,0.00
2013-1-6,38,34,23,21,18,4,62,50,43,30.16,29.90,12,1,13,0.02
2013-1-7,35,30,21,21,4,-9,65,34,19,30.34,29.96,14,2,14,0.00
2013-1-8,43,37,24,20,18,5,57,46,37,30.32,30.22,17,2,17,0.00
2013-1-9,44,40,26,28,22,14,63,51,38,30.33,29.99,17,2,17,0.00
2013-1-10,40,36,30,18,6,-2,47,30,19,30.48,30.04,20,4,21,0.00
2013-1-11,36,33,25,29,20,10,84,60,44,30.46,30.15,10,1,10,0.08
2013-1-12,44,40,34,40,36,30,93,87,84,30.16,30.08,57,0,57,0.02
2013-1-13,48,46,39,44,43,36,91,89,84,30.12,29.98,28,0,28,0.00
2013-1-14,51,45,35,50,36,19,96,72,37,30.23,29.84,18,2,19,0.00
2013-1-15,38,34,30,20,17,14,59,48,40,30.28,30.17,10,0,10,0.00
2013-1-16,33,31,27,27,24,13,79,76,47,30.17,29.78,57,0,57,0.00
2013-1-17,38,34,24,27,18,-5,80,54,27,30.05,29.82,17,3,17,0.04
2013-1-18,24,17,14,1,-18,-21,36,19,19,30.36,30.00,19,3,19,0.00
2013-1-19,40,31,17,21,5,-18,54,33,19,30.29,29.89,13,3,18,0.02
2013-1-20,47,37,23,23,5,-13,58,28,19,29.87,29.56,23,6,23,0.00
2013-1-21,27,22,16,7,-6,-19,60,32,19,30.03,29.74,10,1,10,0.00
2013-1-22,20,15,8,8,-19,-26,63,20,19,29.99,29.71,18,5,22,0.00
2013-1-23,12,6,2,-22,-27,-31,19,19,19,30.05,29.98,18,5,20,0.00
2013-1-24,14,8,-3,-21,-26,-35,19,19,19,30.13,29.99,22,6,22,0.00
2013-1-25,19,15,3,-11,-19,-30,30,19,19,30.24,29.99,13,2,13,0.00
2013-1-26,18,15,5,-7,-18,-24,43,21,19,30.13,29.93,19,5,19,0.00
2013-1-27,25,20,6,-12,-16,-27,31,19,19,30.40,30.18,57,4,57,0.00
2013-1-28,30,24,15,16,4,-20,72,46,19,30.37,29.95,8,1,10,0.00
2013-1-29,37,32,24,28,23,16,81,69,57,30.14,29.95,7,0,7,0.04
2013-1-30,55,52,33,54,51,28,96,96,82,30.07,29.44,13,2,21,0.05
2013-1-31,58,47,29,57,31,-7,96,64,19,29.55,29.00,26,6,27,0.53
2013-2-1,31,24,18,4,-12,-17,38,20,19,30.00,29.57,19,6,19,0.58
2013-2-2,29,25,14,-8,-12,-20,26,19,19,30.17,29.98,12,2,12,0.58
2013-2-3,27,25,17,10,6,1,55,44,37,29.97,29.69,7,0,7,0.58
2013-2-4,27,21,16,6,-9,-17,52,27,19,29.87,29.68,21,4,26,0.58
2013-2-5,29,24,18,10,0,-12,63,37,19,29.95,29.86,8,0,8,0.58
2013-2-6,36,29,20,22,3,-16,67,36,19,30.23,29.86,19,4,19,0.58
2013-2-7,31,25,15,-7,-12,-20,28,19,19,30.44,30.24,10,1,10,0.58
2013-2-8,25,20,15,17,12,-16,75,70,19,30.36,29.59,57,7,57,0.58
2013-2-9,22,15,10,9,-2,-24,73,52,19,30.15,29.57,25,8,25,0.00
2013-2-10,37,24,7,-1,-13,-27,19,19,19,30.35,30.15,16,3,18,0.00
2013-2-11,41,38,23,37,33,-14,89,83,19,30.27,29.61,10,1,10,0.62
2013-2-12,42,37,33,34,18,15,88,48,36,29.86,29.62,28,6,28,0.57
2013-2-13,42,36,30,18,7,-3,50,31,19,29.84,29.67,16,1,16,0.57
2013-2-14,49,36,25,20,8,-3,56,34,19,29.95,29.68,10,1,11,0.00
2013-2-15,53,44,27,28,20,6,71,42,19,29.96,29.87,13,1,18,0.57
2013-2-16,44,34,25,25,15,-7,70,49,19,29.91,29.68,57,1,57,0.61
2013-2-17,23,18,13,4,-16,-21,51,21,19,29.65,29.42,28,9,28,0.59
2013-2-18,28,22,8,-9,-14,-26,19,19,19,30.11,29.68,29,6,29,0.57
2013-2-19,50,42,18,35,18,-17,82,44,19,30.13,29.58,9,0,11,0.75
2013-2-20,37,27,21,30,-6,-15,76,24,19,29.76,29.55,26,7,26,0.57
2013-2-21,31,25,20,0,-8,-14,40,23,19,30.10,29.75,22,7,22,0.57
2013-2-22,40,34,19,17,1,-6,55,26,19,30.32,30.19,11,1,12,0.57
2013-2-23,33,31,29,28,20,10,87,65,45,30.27,29.84,13,2,13,0.00
2013-2-24,37,34,32,30,28,24,88,79,67,29.85,29.68,15,1,15,0.57
2013-2-25,48,34,26,28,23,18,77,63,42,30.20,29.85,8,0,8,0.10
2013-2-26,42,36,32,26,19,14,71,49,36,30.28,30.08,13,2,18,1.04
2013-2-27,39,36,32,38,34,23,96,92,69,30.06,29.57,25,7,27,1.14
2013-2-28,46,39,32,37,30,26,88,71,62,29.61,29.52,6,0,6,0.57
2013-3-1,44,37,32,29,18,15,81,48,35,29.67,29.52,15,3,18,0.57
2013-3-2,37,34,30,18,17,15,56,49,43,29.67,29.61,57,2,57,0.57
2013-3-3,37,30,26,21,16,11,70,57,45,29.63,29.56,13,3,16,0.00
2013-3-4,38,30,22,16,8,-3,62,43,19,29.73,29.59,20,6,21,0.00
2013-3-5,44,38,24,22,14,3,57,39,19,30.04,29.76,57,1,57,0.57
2013-3-6,36,33,30,30,26,21,86,75,56,30.03,29.97,26,5,26,0.02
2013-3-7,34,30,27,24,21,19,79,68,57,30.00,29.95,22,4,24,0.03
2013-3-8,38,33,28,26,20,13,77,59,37,30.12,29.90,12,2,13,0.58
2013-3-9,56,44,25,17,12,0,56,29,19,30.28,30.11,13,1,13,0.62
2013-3-10,50,41,26,24,14,4,66,37,19,30.35,30.26,11,1,11,0.00
2013-3-11,54,47,36,34,28,23,76,49,31,30.22,30.12,10,1,11,0.00
2013-3-12,51,50,45,49,46,42,94,87,71,30.01,29.71,12,2,18,0.51
2013-3-13,51,42,32,29,10,-4,71,28,19,29.77,29.71,20,4,20,0.00
2013-3-14,33,27,20,3,-9,-16,35,20,19,29.80,29.70,20,6,22,0.00
2013-3-15,44,36,17,18,3,-18,54,27,19,29.82,29.62,19,3,19,0.58
2013-3-16,40,35,24,15,-3,-13,53,19,19,29.84,29.67,11,1,13,0.58
2013-3-17,36,29,23,2,-6,-12,38,22,19,30.22,29.83,18,3,18,0.00
2013-3-18,38,31,16,11,-4,-19,53,22,19,30.38,30.13,11,1,11,0.58
2013-3-19,34,29,24,28,23,11,83,77,53,30.13,29.60,26,5,26,0.00
2013-3-20,42,35,22,21,1,-8,74,25,19,29.78,29.67,21,5,21,0.64
2013-3-21,43,33,23,13,4,-9,48,31,19,29.78,29.58,9,1,10,0.61
2013-3-22,43,34,20,11,2,-8,43,27,19,29.73,29.59,57,5,57,0.57
2013-3-23,42,35,26,15,0,-8,55,23,19,29.78,29.65,24,7,25,0.00
2013-3-24,52,39,26,12,4,-4,46,25,19,29.81,29.70,16,2,19,0.57
2013-3-25,42,34,30,19,14,5,52,43,30,29.74,29.48,17,2,17,0.00
2013-3-26,45,39,32,20,8,-5,56,31,19,29.78,29.53,13,2,16,0.57
2013-3-27,54,44,28,18,9,-6,44,25,19,29.86,29.76,13,3,17,0.57
2013-3-28,51,44,33,30,18,5,74,37,19,30.01,29.85,12,1,12,0.57
2013-3-29,57,49,33,26,16,4,66,28,19,30.04,29.97,13,3,16,0.57
2013-3-30,59,50,34,22,12,1,54,22,19,30.08,29.99,17,3,17,0.57
2013-3-31,62,53,34,33,17,-4,75,27,19,30.09,29.70,57,1,57,0.57
2013-4-1,64,51,30,41,32,-7,87,52,19,29.77,29.53,22,4,22,0.75
2013-4-2,39,33,25,0,-4,-11,31,20,19,29.92,29.79,22,6,25,0.57
2013-4-3,46,36,25,6,-2,-11,19,19,19,30.13,29.91,26,8,26,0.57
2013-4-4,60,46,25,18,7,-10,36,20,19,30.26,30.02,18,2,18,0.57
2013-4-5,63,45,34,20,14,0,50,31,19,30.02,29.66,22,3,22,0.57
2013-4-6,50,39,27,16,0,-10,45,19,19,30.28,29.88,19,4,19,0.57
2013-4-7,60,49,28,32,16,-8,62,29,19,30.27,29.97,12,2,20,0.57
2013-4-8,69,56,42,37,27,16,78,38,19,30.07,29.95,14,2,14,0.57
2013-4-9,72,58,46,50,38,31,87,52,24,30.05,29.87,22,3,22,0.06
2013-4-10,71,62,45,47,44,34,89,52,35,29.96,29.83,9,0,9,0.78
2013-4-11,59,52,38,45,29,2,84,43,19,30.10,29.82,10,1,21,0.59
2013-4-12,37,34,34,33,31,27,94,88,68,30.10,29.76,18,6,21,0.92
2013-4-13,53,47,33,37,30,25,93,52,35,29.93,29.73,13,2,13,0.64
2013-4-14,52,42,35,38,22,3,76,49,19,30.20,29.90,22,2,22,0.00
2013-4-15,62,47,33,28,22,16,61,40,19,30.35,30.20,8,0,8,0.00
2013-4-16,72,60,37,47,38,23,73,46,26,30.35,30.08,14,2,14,0.57
2013-4-17,70,60,48,48,25,13,80,29,19,30.31,30.08,15,3,15,0.57
2013-4-18,64,56,42,41,23,13,69,31,19,30.38,30.11,13,1,13,0.57
2013-4-19,74,65,51,59,55,43,90,73,48,30.11,29.67,16,2,21,0.57
2013-4-20,62,52,42,58,26,14,86,41,21,30.15,29.65,23,5,23,0.93
2013-4-21,58,48,30,18,9,-2,45,21,19,30.61,30.25,16,2,16,0.57
2013-4-22,52,44,34,27,18,2,63,38,19,30.68,30.52,20,5,20,0.57
2013-4-23,38,36,34,37,32,24,96,84,63,30.52,30.08,16,3,16,0.00
2013-4-24,77,65,39,45,36,28,96,41,19,30.05,29.81,13,2,13,0.57
2013-4-25,65,56,44,47,21,5,80,29,19,30.26,29.84,21,4,21,0.62
2013-4-26,68,55,43,31,24,4,55,32,19,30.39,30.26,16,3,17,0.58
2013-4-27,69,58,37,40,26,18,78,33,19,30.39,30.26,8,1,8,0.58
2013-4-28,77,64,42,35,25,13,63,24,19,30.32,30.19,10,1,10,0.58
2013-4-29,75,60,48,40,26,12,63,30,19,30.26,30.19,11,1,11,0.58
2013-4-30,73,63,47,32,22,12,46,21,19,30.33,30.24,11,2,11,0.58
2013-5-1,75,65,42,34,24,4,43,21,19,30.46,30.34,13,2,16,0.58
2013-5-2,86,66,49,38,33,23,54,31,19,30.46,30.30,18,2,19,0.58
2013-5-3,65,58,41,40,35,30,71,43,31,30.48,30.36,15,3,16,0.58
2013-5-4,68,57,42,44,28,12,77,35,19,30.35,30.25,17,2,17,0.58
2013-5-5,68,58,36,41,31,22,81,37,19,30.30,30.20,12,2,13,0.58
2013-5-6,76,62,41,44,36,25,82,42,19,30.26,30.12,7,0,7,0.58
2013-5-7,86,72,49,49,43,33,74,37,19,30.17,30.09,12,1,12,0.58
2013-5-8,70,64,54,60,57,49,92,79,51,30.19,30.05,20,3,20,0.74
2013-5-9,69,62,55,58,54,51,96,78,56,30.03,29.89,7,0,8,0.96
2013-5-10,62,57,54,56,53,50,92,89,81,29.98,29.91,7,1,7,0.57
2013-5-11,66,62,57,59,57,49,88,83,62,29.91,29.71,10,1,12,0.77
2013-5-12,75,60,47,57,41,25,90,52,31,29.83,29.61,17,2,17,0.61
2013-5-13,63,50,40,32,23,7,57,37,19,30.02,29.83,17,3,18,0.00
2013-5-14,59,53,40,30,20,13,55,29,19,30.04,29.99,12,2,12,0.57
2013-5-15,59,51,38,33,28,24,60,43,29,30.05,30.03,3,0,3,0.57
2013-5-23,70,67,64,64,63,62,92,87,78,29.89,29.82,8,1,11,0.61
2013-5-24,72,61,47,64,54,42,96,78,60,29.84,29.68,8,1,12,0.67
2013-5-25,50,44,39,46,40,35,91,86,82,29.82,29.75,11,3,19,0.61
2013-5-26,58,50,38,42,37,34,89,61,46,30.09,29.74,12,3,17,0.61
2013-5-27,74,64,41,42,31,23,82,32,19,30.17,30.09,17,3,18,0.59
2013-5-28,81,69,48,48,36,29,66,32,19,30.23,30.16,5,0,8,0.57
2013-5-29,77,67,56,64,59,50,90,77,58,30.16,30.00,12,0,13,0.88
2013-5-30,89,80,62,66,61,58,91,55,39,30.13,30.05,10,1,13,0.57
2013-5-31,98,87,68,66,58,50,80,40,21,30.14,30.00,6,0,12,0.57
2013-6-1,97,87,68,62,58,51,68,39,22,30.03,29.91,7,1,10,0.57
2013-6-2,94,82,68,64,60,51,83,50,25,29.92,29.78,12,1,16,0.57
2013-6-3,81,72,59,63,56,39,86,58,46,29.88,29.80,7,0,10,1.30
2013-6-4,75,67,50,42,38,32,57,35,22,30.11,29.87,10,2,18,0.57
2013-6-5,82,72,52,48,40,32,69,34,19,30.20,30.11,6,0,9,0.57
2013-6-6,74,67,54,49,44,39,79,46,28,30.19,30.10,5,0,11,0.57
2013-6-7,57,54,52,56,52,49,96,94,84,30.09,29.84,57,4,57,2.02
2013-6-8,78,66,51,59,55,50,96,69,47,30.04,29.64,10,2,13,1.10
2013-6-9,86,72,55,60,50,43,89,47,28,30.20,30.05,9,1,12,0.57
2013-6-10,70,62,57,59,53,47,96,75,50,30.20,30.00,18,1,18,0.27
2013-6-11,66,61,55,60,57,54,96,87,74,29.94,29.58,9,1,10,1.44
2013-6-12,70,65,56,54,49,46,87,57,46,29.85,29.60,12,2,17,0.57
2013-6-13,61,56,51,54,52,46,96,85,69,29.84,29.69,10,1,11,0.57
2013-6-14,72,64,50,52,50,47,96,64,43,29.82,29.63,10,0,15,0.19
2013-6-15,83,72,55,51,40,29,76,34,19,29.97,29.84,10,1,21,0.00
2013-6-16,77,71,54,56,50,39,62,48,36,29.97,29.75,5,0,10,0.00
2013-6-17,92,77,59,61,54,48,79,49,25,29.94,29.83,8,1,12,0.12
2013-6-18,76,66,58,61,57,54,90,74,49,29.96,29.89,8,1,12,1.00
2013-6-19,82,70,54,56,41,27,88,37,19,30.14,29.92,7,0,9,0.02
2013-6-20,86,76,52,53,43,33,70,33,19,30.27,30.17,10,0,10,0.00
2013-6-21,90,78,56,58,54,48,77,45,29,30.28,30.22,8,0,8,1.34
2013-6-22,90,78,62,57,52,46,68,43,25,30.25,30.14,11,0,11,0.51
2013-6-23,94,83,64,65,61,51,66,49,34,30.18,30.05,7,0,7,0.00
2013-6-24,96,85,69,68,63,59,80,50,31,30.07,29.94,11,1,13,0.24
2013-6-25,96,81,67,65,62,58,81,54,30,29.98,29.78,8,1,11,0.00
2013-6-26,91,81,70,67,62,59,83,53,36,29.87,29.78,7,1,12,0.00
2013-6-27,72,69,64,66,64,62,96,86,74,29.87,29.77,6,1,10,0.00
2013-6-28,81,73,61,74,66,60,96,80,59,29.71,29.53,6,0,12,0.27
2013-6-29,87,77,69,67,63,60,92,64,43,29.75,29.54,8,0,11,0.00
2013-6-30,90,81,69,68,64,60,88,59,37,29.95,29.76,5,0,12,0.00
2013-7-1,79,76,71,70,68,66,88,78,73,30.10,29.97,3,0,12,0.10
2013-7-2,83,78,71,69,67,65,89,71,60,30.21,30.10,8,0,9,0.00
2013-7-3,92,82,72,68,66,64,85,59,41,30.24,30.17,7,1,10,0.00
2013-7-4,96,88,72,71,67,64,84,51,36,30.25,30.15,57,1,57,0.00
2013-7-5,100,89,76,70,66,61,72,47,31,30.21,30.09,10,1,10,0.00
2013-7-6,96,88,74,70,64,61,76,47,35,30.13,30.03,11,1,11,0.00
2013-7-7,99,85,71,68,65,62,81,55,32,30.07,29.96,8,0,8,0.21
2013-7-8,95,84,71,70,65,59,86,56,33,30.08,29.96,9,1,10,0.00
2013-7-9,75,72,67,67,65,62,92,77,69,30.12,30.06,8,1,9,0.00
2013-7-10,87,77,67,75,69,64,96,77,52,30.06,29.84,7,0,10,0.18
2013-7-11,85,79,71,71,66,60,91,66,50,29.95,29.82,7,0,8,0.10
2013-7-12,77,72,66,60,54,49,74,53,48,30.20,29.97,15,3,15,0.00
2013-7-13,74,70,63,69,66,50,96,87,57,30.33,30.21,10,1,10,0.08
2013-7-14,94,86,71,72,66,61,92,54,37,30.34,30.24,10,0,10,0.00
2013-7-15,96,87,75,70,65,58,75,49,32,30.25,30.15,6,0,8,0.00
2013-7-16,98,88,75,66,62,55,62,43,27,30.21,30.15,7,0,8,0.00
2013-7-17,100,89,74,68,64,58,68,45,27,30.22,30.07,6,0,6,0.00
2013-7-18,101,90,77,69,65,60,69,46,27,30.06,29.98,6,0,6,0.00
2013-7-19,101,90,78,72,67,62,68,49,29,29.98,29.79,10,1,11,0.00
2013-7-20,97,86,78,71,67,61,70,53,34,29.87,29.72,15,1,15,0.35
2013-7-21,90,81,71,63,58,52,72,47,29,30.01,29.88,6,0,6,0.00
2013-7-22,85,77,68,66,63,59,86,63,43,30.04,29.90,10,1,10,0.00
2013-7-23,87,77,68,76,69,64,96,76,53,29.88,29.58,7,0,10,0.98
2013-7-24,87,76,69,69,61,52,89,62,38,29.97,29.63,9,1,12,0.00
2013-7-25,65,58,57,56,51,44,92,78,57,30.10,29.98,9,1,9,0.00
2013-7-26,71,66,59,68,61,56,93,83,67,30.06,29.98,9,0,11,0.00
2013-7-27,90,77,60,72,65,57,91,68,48,30.09,30.02,5,0,5,0.00
2013-7-28,87,79,62,72,68,59,91,70,56,30.03,29.99,4,0,4,0.00
2013-7-29,89,79,66,72,67,60,92,67,54,30.08,29.99,6,0,6,0.00
2013-7-30,86,72,61,64,58,54,80,63,42,30.14,30.07,13,1,13,0.00
2013-7-31,87,77,60,64,61,54,82,58,44,30.17,30.07,5,0,5,0.00
2013-8-1,83,71,60,68,63,56,90,77,58,30.07,29.89,6,0,7,0.20
2013-8-2,86,72,64,70,63,60,91,75,49,29.92,29.82,10,0,10,0.00
2013-8-3,78,73,62,65,63,58,89,70,60,29.90,29.83,8,0,8,0.00
2013-8-4,84,72,58,64,57,52,85,61,44,29.92,29.82,9,1,10,0.00
2013-8-5,78,69,54,56,49,46,85,52,34,30.07,29.93,18,2,18,0.00
2013-8-6,85,72,53,59,55,46,81,56,38,30.16,30.06,5,0,5,0.00
2013-8-7,80,69,56,60,58,52,88,69,48,30.20,30.16,5,0,7,0.00
2013-8-8,79,73,64,71,68,58,93,85,76,30.12,30.04,4,0,6,0.00
2013-8-9,75,72,70,72,70,67,95,92,85,30.05,29.80,57,1,57,0.00
2013-8-10,85,74,62,68,60,52,91,62,46,30.04,29.85,8,2,16,0.00
2013-8-11,84,74,54,61,49,45,83,43,28,30.11,30.04,10,1,10,0.06
2013-8-12,88,74,60,59,54,47,81,51,26,30.05,29.95,6,0,7,15.85
2013-8-13,74,70,52,64,61,40,87,72,62,29.95,29.73,6,0,7,1.65
2013-8-14,74,68,56,60,48,44,83,48,38,29.97,29.72,17,2,19,0.00
2013-8-15,79,69,53,52,47,42,83,47,30,30.13,30.01,11,1,12,0.00
2013-8-16,85,72,56,54,49,45,74,47,28,30.21,30.13,7,0,9,0.45
2013-8-17,77,67,58,57,55,50,77,65,45,30.30,30.23,14,0,14,8.83
2013-8-18,79,71,65,59,55,50,76,58,38,30.29,30.13,4,0,4,0.00
2013-8-19,68,63,59,58,56,52,82,79,68,30.10,30.08,14,0,14,0.00
2013-8-20,81,75,69,58,57,54,59,53,43,30.14,30.10,2,0,9,0.22
2013-8-21,70,68,64,59,58,55,77,69,65,30.18,30.14,3,0,5,0.00
2013-9-15,49,49,48,44,44,43,83,83,82,30.14,30.13,0,0,0,0.00
2013-11-28,26,23,20,0,-7,-13,42,28,19,30.20,29.94,86,25,86,0.33
2013-11-29,29,25,18,8,-3,-17,52,31,19,30.48,30.21,14,4,28,0.02
2013-11-30,29,22,15,12,-5,-15,56,30,19,30.52,30.18,14,2,14,0.00
2013-12-1,38,36,27,34,31,14,88,81,58,30.17,29.87,0,0,2,0.00
2013-12-2,38,36,33,35,33,29,91,89,85,29.80,29.72,4,0,4,0.02
2013-12-3,44,37,29,40,32,26,94,83,63,29.74,29.67,14,1,21,0.00
2013-12-4,41,36,28,28,25,22,83,65,52,29.96,29.77,21,4,21,0.00
2013-12-5,53,44,34,52,43,24,96,94,68,29.98,29.74,57,2,57,0.00
2013-12-6,54,46,34,53,43,29,96,90,75,29.94,29.69,71,1,71,0.12
2013-12-7,34,31,27,30,21,15,87,66,53,30.21,29.87,7,2,13,0.00
2013-12-8,30,27,20,16,10,5,68,49,38,30.35,30.22,14,0,14,0.00
2013-12-9,34,31,21,31,29,8,92,90,49,30.23,29.70,57,2,57,0.00
2013-12-10,34,29,21,30,22,10,91,76,61,29.74,29.59,4,1,12,0.00
2013-12-11,27,23,19,13,10,7,65,58,53,29.99,29.78,57,2,57,0.00
2013-12-15,26,25,23,18,16,11,71,66,59,29.52,29.34,5,3,18,0.00
2013-12-16,24,20,15,12,-4,-17,64,34,19,29.95,29.52,21,5,21,0.00
2013-12-17,18,10,2,12,-1,-13,76,60,42,29.99,29.72,5,2,11,0.00
2013-12-18,29,25,19,14,12,10,68,57,51,29.73,29.70,7,4,17,0.00
2013-12-19,38,34,25,19,16,11,56,49,42,29.89,29.76,8,2,22,0.00
2013-12-20,48,43,32,28,26,18,63,51,43,29.90,29.74,1,0,8,0.10
2013-12-21,55,50,40,44,39,26,79,66,55,29.79,29.69,8,0,8,0.00
2013-12-22,62,53,35,59,48,31,96,85,68,29.80,29.59,16,2,57,0.00
2013-12-23,39,35,32,38,34,30,96,95,86,29.90,29.75,57,2,57,0.51
2013-12-24,35,29,22,31,14,0,86,54,32,29.98,29.84,21,3,21,0.00
2013-12-25,21,17,11,2,-18,-22,43,19,19,30.27,29.99,57,1,57,0.00
2013-12-26,32,25,14,24,16,-8,72,67,35,30.22,29.87,14,1,14,0.00
2013-12-27,32,29,20,15,12,9,68,49,42,30.06,29.97,11,1,13,0.00
2013-12-28,40,37,25,21,19,12,62,48,41,30.00,29.81,14,1,15,0.02
2013-12-29,40,37,34,35,28,20,91,72,51,29.83,29.25,13,1,13,0.47
2013-12-30,37,27,15,31,1,-15,88,37,19,29.93,29.37,18,4,28,0.02
2013-12-31,22,19,12,4,-5,-17,52,36,19,29.95,29.78,57,2,57,0.00
2014-1-1,24,19,15,-2,-13,-20,38,24,19,30.12,29.94,15,2,15,0.00
2014-1-2,19,9,-1,4,-4,-16,61,55,38,30.09,29.56,20,4,71,0.00